Wetbulb
74.83 72.98 74.19 69.52 57.17 58.92 56.59 58.24 62.21 61.73 61.75 65.35 66.70 64.94 62.81 65.31 61.41 55.05 70.59 72.12 73.40 73.70 75.41 77.08 77.88 77.23 76.90 76.86 76.78 76.90 76.80 77.13 77.61 77.64 77.68 77.04 76.58 77.22 77.33 76.93 76.97 76.75 76.54 76.81 76.97 77.12 77.35 77.04 77.00
72.13 72.87 70.51 64.83 55.90 52.84 54.53 60.91 61.26 63.32 65.27 67.01 67.01 66.56 64.81 63.22 68.79 69.18 69.25 72.82 73.95 74.41 75.44 76.11 77.74 77.80 76.90 76.78 76.74 76.61 76.88 76.68 76.89 77.13 77.28 76.47 76.50 76.37 76.24 76.84 77.00 76.65 76.93 76.66 76.76 75.97 75.80 76.01 76.25
72.57 74.00 64.08 59.92 56.04 52.92 54.70 60.17 62.28 64.96 66.68 66.78 64.97 67.38 65.64 65.07 69.11 69.47 71.62 73.12 74.00 74.12 75.47 76.27 78.19 77.96 76.84 76.59 76.60 76.78 76.68 76.61 76.47 76.55 76.47 76.33 76.01 76.07 76.07 75.80 76.10 76.40 76.10 76.13 76.43 76.08 75.44 74.99 74.55
71.52 70.03 67.79 56.94 55.47 60.03 61.35 62.36 65.52 65.35 66.35 66.83 66.22 62.94 67.55 70.85 69.78 70.95 72.62 73.31 73.15 73.87 74.71 77.16 78.54 77.01 76.69 76.61 76.37 76.71 76.52 76.36 76.42 76.47 76.47 76.33 76.68 77.29 76.10 75.66 75.91 74.80 73.87 74.60 75.49 75.69 74.89 74.52 73.53
68.06 66.26 58.14 55.93 57.32 61.25 63.91 64.82 65.53 63.67 64.51 65.80 65.95 63.04 65.18 69.90 71.90 72.14 72.39 72.96 72.88 73.51 74.82 76.14 78.52 77.88 76.81 76.93 76.55 76.72 76.64 76.47 76.54 76.47 76.56 76.56 76.54 76.27 76.34 76.38 76.24 76.02 75.33 74.94 75.27 75.44 75.41 75.00 73.94
62.82 61.79 55.85 52.74 57.21 62.77 64.09 65.95 65.76 64.13 65.01 64.03 65.63 64.29 65.70 70.73 70.82 71.65 72.27 72.33 73.49 74.24 75.37 75.89 78.04 78.49 77.37 77.20 77.27 77.13 76.84 76.80 76.74 77.31 77.69 76.99 76.75 76.57 76.30 76.33 76.27 76.22 75.91 75.77 75.10 74.90 76.33 75.20 74.94
61.25 59.68 53.72 55.04 56.13 60.32 63.83 67.05 63.62 62.51 61.81 60.59 67.23 62.66 65.06 69.08 71.20 71.84 71.59 72.85 73.62 75.30 75.22 75.45 75.86 77.10 77.61 77.66 77.40 77.21 76.84 77.38 77.63 77.41 77.18 76.80 76.62 76.43 76.35 76.13 76.02 76.02 75.63 75.61 75.19 75.14 75.24 75.22 75.27
61.65 58.74 58.82 57.01 55.77 57.33 65.35 65.94 65.91 64.83 62.74 66.07 67.37 61.52 61.97 68.46 71.26 71.55 72.69 72.82 73.47 74.65 74.99 74.82 74.96 75.32 75.75 75.97 77.98 77.38 76.97 77.17 77.75 77.59 76.84 76.53 76.76 76.63 76.19 76.44 76.29 75.88 75.47 75.11 75.27 74.97 74.96 75.15 75.12
62.23 52.81 51.43 55.95 56.53 57.56 66.24 64.41 67.36 68.44 65.20 66.35 66.72 65.95 68.04 70.39 71.16 71.42 71.53 72.33 72.98 73.95 74.50 74.30 74.21 74.20 74.77 75.21 76.86 78.10 77.97 77.97 77.46 76.93 76.69 76.78 73.54 73.63 74.54 75.35 76.14 76.00 76.11 75.36 74.61 75.41 75.50 75.50 75.31
56.90 50.80 54.10 57.80 56.88 57.67 65.44 65.45 66.45 65.65 63.40 65.33 66.64 66.96 69.80 70.19 70.56 69.78 69.24 69.71 70.83 71.62 72.17 73.29 73.02 73.93 73.86 75.19 73.93 74.37 74.30 74.55 74.41 74.21 73.02 73.69 73.19 72.41 74.07 75.20 76.60 76.30 75.36 75.16 74.14 74.27 75.05 74.70 72.03
57.05 52.50 56.98 60.95 59.29 59.25 62.75 65.43 67.63 65.12 62.27 64.73 63.53 66.03 68.75 69.37 69.48 68.70 69.03 69.43 69.79 71.30 72.22 72.84 72.91 73.54 73.47 73.95 73.21 73.71 73.14 73.73 73.35 73.18 72.90 72.46 72.83 71.14 71.19 70.99 73.05 71.88 74.32 71.10 72.48 71.66 71.54 71.51 71.06
55.43 58.95 58.53 60.40 61.58 60.76 60.33 65.99 64.80 65.07 63.87 67.73 66.57 67.99 68.73 68.46 68.44 68.10 68.23 67.99 68.26 69.93 70.97 72.14 72.91 72.71 72.56 72.55 73.48 73.35 73.01 72.84 72.52 72.31 72.27 71.93 70.96 69.87 70.07 69.06 71.16 70.12 71.07 70.64 69.82 69.03 69.53 69.37 70.40
54.72 55.71 58.31 60.32 60.22 59.75 64.21 64.06 63.94 64.21 66.55 68.53 68.44 68.19 68.04 68.40 68.72 68.98 69.43 69.47 68.87 68.86 70.24 71.17 72.49 72.10 72.25 71.99 72.83 72.81 73.08 73.40 72.64 72.37 72.34 71.18 69.17 68.69 70.28 70.08 70.93 69.89 70.12 71.25 70.77 69.76 68.78 68.02 68.17
55.47 54.29 56.46 58.55 58.64 59.67 60.98 62.57 63.39 64.10 67.06 67.72 67.34 66.64 67.37 67.41 67.98 68.73 69.26 69.19 69.36 69.28 69.50 71.48 71.71 71.80 72.24 72.22 72.69 72.82 72.69 72.88 72.44 72.08 72.22 71.34 69.97 70.30 71.43 70.46 70.73 70.59 69.82 70.53 71.04 70.69 70.14 69.74 70.04
56.18 52.46 54.63 55.75 56.98 57.48 61.53 58.23 58.49 64.24 66.07 66.13 66.77 66.83 67.16 67.34 67.80 67.75 69.43 69.49 69.80 70.51 70.41 71.13 71.42 71.57 71.79 72.40 72.71 72.40 72.64 72.91 72.68 73.05 72.88 71.47 71.24 71.01 70.79 70.64 70.73 70.37 70.57 71.08 72.11 71.04 70.73 69.65 70.42
53.01 52.23 48.32 54.61 56.77 57.63 55.18 47.72 59.95 63.41 64.60 64.20 65.75 66.88 65.87 65.85 67.35 68.39 68.90 69.84 70.68 70.82 70.27 71.40 72.35 72.04 71.94 72.11 72.31 72.34 72.21 71.70 71.68 71.80 72.44 73.08 71.93 71.21 70.34 70.73 70.01 70.73 70.89 70.44 69.87 69.96 69.35 69.24 69.22
48.59 45.18 48.41 51.94 56.56 57.26 53.45 49.29 59.79 63.22 62.32 62.71 62.95 63.07 65.73 66.45 67.05 68.58 69.62 69.57 70.62 70.60 69.86 70.09 70.88 71.82 72.01 71.75 71.40 71.30 71.62 71.73 71.66 70.96 72.29 71.64 71.96 71.16 69.95 69.82 70.32 71.02 69.65 70.01 70.26 69.63 68.79 66.34 66.66
44.49 44.74 47.33 47.50 53.66 56.62 54.09 53.07 58.60 60.18 60.53 60.40 61.14 63.49 65.34 66.36 66.41 68.25 68.95 70.16 70.39 70.15 70.06 69.86 70.03 71.10 71.13 70.41 71.17 71.11 70.82 70.77 71.42 71.00 72.62 71.99 72.44 71.84 70.09 69.01 70.03 71.01 70.19 69.33 69.60 69.78 68.54 67.19 65.94
47.80 45.30 45.84 49.18 53.66 53.79 52.73 53.03 55.65 59.05 59.15 58.30 62.25 63.62 63.92 62.84 63.96 68.16 68.65 69.61 69.77 69.47 69.64 69.98 69.85 70.07 69.91 70.37 70.16 69.67 69.46 70.03 70.95 72.02 72.81 71.42 71.16 72.46 70.03 69.03 70.05 70.82 69.13 69.60 69.74 68.97 67.22 67.22 69.78
46.06 44.29 44.51 49.19 55.70 52.39 52.64 51.60 55.53 57.84 57.72 57.51 60.45 63.47 63.77 62.35 64.91 65.34 66.83 68.46 69.01 68.93 69.43 69.79 70.16 69.98 70.49 70.87 71.12 70.43 69.67 70.45 70.64 71.30 72.37 72.54 71.69 72.91 71.37 70.51 70.86 70.39 70.33 69.40 69.22 68.72 67.53 67.66 69.38
44.28 42.50 44.40 46.63 50.58 53.35 52.01 47.19 51.97 57.05 57.80 58.74 60.23 64.23 63.96 63.56 64.13 64.33 64.02 65.66 69.05 68.65 69.21 69.75 70.49 70.38 70.95 70.67 70.66 70.17 69.89 70.32 69.85 69.77 70.41 72.25 72.54 72.78 72.78 71.48 70.29 70.94 70.01 69.72 69.58 69.46 68.86 66.78 69.22
41.30 48.07 48.33 49.16 45.92 41.64 49.85 40.08 47.78 52.08 53.98 56.89 59.24 62.09 63.20 62.68 64.09 64.67 63.84 64.11 68.61 68.89 69.97 69.62 69.75 70.25 70.60 71.37 70.53 69.50 68.99 67.84 68.81 69.23 70.30 71.23 72.53 71.54 72.75 72.08 71.02 70.85 69.23 68.67 68.83 68.73 68.11 68.79 66.96
46.29 49.10 47.55 49.24 43.78 42.09 46.16 42.94 45.20 50.34 51.96 55.49 58.84 60.22 61.84 63.41 63.59 64.27 65.49 67.52 69.02 70.15 69.96 70.07 70.04 70.33 70.85 71.54 71.08 70.30 68.40 68.77 68.81 68.65 68.81 70.34 70.98 71.15 72.15 72.21 71.55 70.74 70.43 70.04 70.35 70.35 69.69 69.06 67.82
50.12 47.48 45.40 43.04 41.65 38.02 40.51 43.86 42.26 48.97 51.96 55.52 58.07 60.87 62.18 62.12 62.98 66.08 67.28 68.35 68.28 68.78 68.91 68.70 68.07 68.45 68.45 71.03 70.04 70.26 69.03 68.61 68.09 68.23 68.88 68.99 70.00 70.79 71.29 72.09 71.84 71.62 70.49 69.75 69.77 69.81 69.29 69.85 69.08
46.39 42.14 37.15 37.90 37.06 37.29 41.12 44.03 45.34 52.64 56.27 57.35 58.27 59.82 62.34 62.63 63.89 64.83 65.25 66.50 66.61 67.21 67.39 66.95 67.06 67.41 68.50 69.64 69.87 70.20 69.55 68.83 68.85 68.67 68.84 68.47 68.75 69.56 70.46 71.17 71.14 70.97 71.10 71.12 71.19 70.36 70.11 70.11 69.60
44.11 42.21 37.72 34.14 34.33 38.18 45.00 41.79 47.26 55.70 57.79 59.39 60.78 61.62 63.17 64.20 64.41 64.38 64.94 65.72 67.15 65.08 65.08 66.10 65.72 66.56 68.20 70.02 70.48 70.93 70.25 69.74 70.23 69.42 69.24 68.81 68.66 69.73 70.57 70.76 71.32 71.51 71.39 71.04 70.95 70.54 70.44 70.28 70.27
43.58 41.41 42.75 38.51 37.52 39.30 42.32 46.77 52.83 55.27 55.61 57.47 58.79 58.42 59.88 62.63 64.10 64.89 65.16 65.56 65.88 66.59 64.26 65.07 67.05 66.91 67.45 69.69 69.78 69.29 71.18 70.26 70.18 69.66 69.46 69.60 68.63 68.98 70.02 70.32 69.71 70.59 70.94 71.26 70.68 70.48 70.60 71.17 70.88
49.19 48.44 43.10 40.80 35.81 35.61 41.80 44.61 45.27 51.37 52.47 56.17 56.03 57.17 56.76 60.05 61.34 63.81 64.85 64.80 65.12 65.69 65.87 66.78 67.84 68.12 67.71 67.48 67.76 69.06 70.65 71.56 70.92 69.91 69.21 69.00 69.11 69.28 70.06 70.39 70.12 70.24 70.83 71.03 70.44 70.22 70.86 70.01 70.18
48.25 45.69 43.54 42.31 39.82 37.37 37.30 42.61 51.20 52.85 54.23 55.36 56.53 57.80 57.62 59.94 61.04 61.92 64.25 65.25 65.90 66.25 65.54 65.78 65.74 65.88 67.41 67.77 68.09 68.77 69.55 72.08 71.58 70.36 70.02 69.69 69.45 69.09 70.20 70.66 70.59 70.59 70.71 70.77 70.09 70.42 70.18 70.40 69.73
48.46 46.06 43.80 40.16 38.88 38.41 40.07 43.05 53.52 54.70 55.74 55.91 56.16 57.28 58.34 60.08 61.75 63.46 64.33 65.05 65.05 65.58 65.16 65.14 65.54 66.70 67.33 68.33 68.05 68.25 70.11 72.59 71.56 70.72 70.10 69.85 69.45 69.95 70.51 70.71 70.64 70.49 70.34 70.35 70.11 70.28 70.93 69.98 69.68
MSLP
1008.90 1009.37 1009.59 1010.03 1010.99 1011.38 1011.01 1010.65 1009.79 1008.61 1008.16 1008.18 1008.21 1008.71 1009.31 1009.97 1010.77 1012.09 1011.87 1012.17 1012.61 1013.27 1013.82 1014.32 1014.72 1014.96 1015.43 1015.70 1016.00 1016.23 1016.35 1016.41 1016.48 1016.67 1016.77 1016.86 1017.08 1017.17 1017.22 1017.43 1017.45 1017.55 1017.66 1017.73 1017.82 1017.90 1018.01 1018.09 1018.05
1008.80 1008.89 1009.40 1009.97 1010.98 1011.47 1011.21 1010.53 1009.47 1008.27 1007.87 1007.96 1008.12 1008.32 1009.10 1010.01 1010.61 1011.60 1012.31 1012.58 1012.63 1013.14 1013.82 1014.32 1014.79 1015.13 1015.52 1015.78 1016.07 1016.35 1016.48 1016.66 1016.74 1016.79 1016.91 1017.06 1017.16 1017.27 1017.42 1017.46 1017.61 1017.69 1017.82 1017.95 1018.04 1018.12 1018.06 1018.27 1018.19
1008.62 1008.59 1009.40 1010.09 1011.00 1011.08 1010.52 1009.81 1009.13 1008.67 1008.13 1007.87 1008.05 1008.40 1009.13 1010.21 1010.98 1011.50 1011.90 1012.58 1012.91 1013.55 1013.93 1014.32 1014.83 1015.29 1015.56 1015.83 1016.01 1016.22 1016.48 1016.72 1016.83 1016.92 1017.03 1017.16 1017.22 1017.42 1017.46 1017.56 1017.67 1017.72 1017.95 1018.01 1018.13 1018.20 1018.33 1018.49 1018.52
1008.56 1008.94 1009.76 1010.02 1010.50 1009.77 1009.01 1009.08 1008.78 1008.58 1008.42 1008.29 1008.51 1009.05 1009.49 1009.71 1010.64 1011.21 1012.05 1012.80 1013.35 1013.68 1014.20 1014.36 1014.87 1015.34 1015.53 1015.69 1016.00 1016.25 1016.50 1016.71 1016.82 1016.90 1017.05 1017.15 1017.21 1017.25 1017.39 1017.61 1017.71 1017.86 1018.04 1018.04 1018.20 1018.35 1018.51 1018.59 1018.70
1008.88 1009.30 1009.55 1009.72 1009.64 1008.98 1008.58 1008.36 1008.04 1008.31 1008.81 1008.79 1008.89 1009.72 1010.46 1010.68 1010.91 1011.47 1012.16 1012.86 1013.40 1013.96 1014.25 1014.60 1014.91 1015.35 1015.57 1015.80 1016.03 1016.28 1016.59 1016.73 1016.79 1016.93 1017.08 1017.19 1017.31 1017.29 1017.54 1017.75 1017.74 1017.79 1017.91 1017.94 1018.10 1018.31 1018.38 1018.49 1018.75
1009.23 1009.53 1009.47 1009.19 1008.60 1008.25 1008.22 1008.07 1008.31 1008.67 1009.12 1009.27 1009.45 1010.00 1010.93 1011.07 1011.51 1012.22 1012.43 1013.07 1013.44 1013.93 1014.25 1014.69 1015.03 1015.41 1015.74 1015.83 1016.00 1016.31 1016.51 1016.79 1016.88 1016.92 1017.02 1017.19 1017.31 1017.47 1017.65 1017.79 1017.81 1017.77 1017.91 1017.98 1018.13 1018.31 1018.25 1018.43 1018.57
1009.07 1009.38 1008.87 1008.42 1008.26 1008.12 1008.06 1008.41 1008.84 1008.93 1009.10 1009.09 1009.18 1010.32 1011.46 1011.65 1011.81 1012.43 1012.84 1013.40 1013.78 1014.07 1014.33 1014.75 1014.96 1015.29 1015.58 1015.94 1016.04 1016.21 1016.53 1016.79 1016.84 1016.90 1017.05 1017.18 1017.34 1017.47 1017.60 1017.70 1017.79 1017.83 1017.88 1017.95 1018.09 1018.18 1018.23 1018.43 1018.51
1008.12 1008.56 1008.26 1007.88 1007.67 1007.36 1007.67 1008.12 1008.32 1009.20 1009.52 1009.12 1009.25 1010.18 1011.45 1011.79 1012.17 1012.78 1013.49 1014.01 1014.23 1014.54 1014.47 1014.70 1014.94 1015.22 1015.51 1015.78 1016.03 1016.20 1016.44 1016.61 1016.66 1016.76 1016.92 1017.15 1017.35 1017.42 1017.61 1017.75 1017.83 1017.81 1017.85 1017.90 1017.98 1018.17 1018.13 1018.36 1018.56
1007.19 1008.05 1008.12 1007.28 1006.94 1006.68 1007.12 1007.36 1007.85 1008.16 1008.91 1009.38 1009.39 1009.58 1009.93 1011.32 1012.24 1013.18 1013.85 1014.51 1014.65 1014.83 1014.91 1014.91 1014.98 1015.24 1015.55 1015.70 1015.90 1016.14 1016.31 1016.36 1016.48 1016.65 1016.85 1017.13 1017.49 1017.56 1017.67 1017.77 1017.91 1017.83 1017.77 1017.81 1017.98 1018.15 1018.09 1018.19 1018.45
1006.81 1007.52 1007.06 1006.10 1005.90 1006.22 1006.58 1006.76 1007.36 1008.07 1008.66 1009.32 1009.40 1009.69 1010.28 1011.27 1012.31 1013.01 1013.74 1014.20 1014.56 1014.69 1014.90 1015.11 1015.06 1015.16 1015.53 1015.57 1015.82 1016.10 1016.33 1016.39 1016.49 1016.63 1016.95 1017.17 1017.57 1017.66 1017.61 1017.83 1017.81 1017.80 1017.72 1017.76 1017.88 1017.97 1017.99 1018.11 1018.50
1006.21 1006.42 1005.96 1005.59 1005.32 1005.30 1005.86 1006.70 1006.97 1007.67 1008.62 1008.52 1008.81 1009.50 1010.17 1011.32 1012.23 1012.85 1013.44 1013.54 1013.60 1014.06 1014.55 1014.89 1015.12 1015.12 1015.41 1015.49 1015.82 1016.07 1016.40 1016.53 1016.64 1016.73 1016.83 1017.26 1017.45 1017.53 1017.69 1017.80 1017.77 1017.97 1017.74 1017.78 1017.79 1017.99 1018.15 1018.28 1018.63
1006.07 1005.49 1005.37 1005.06 1005.05 1005.31 1005.55 1006.23 1006.85 1007.16 1007.34 1007.33 1008.13 1008.92 1009.79 1010.99 1011.76 1012.08 1012.84 1013.44 1013.69 1014.12 1014.40 1014.88 1014.87 1015.08 1015.37 1015.59 1015.81 1016.03 1016.33 1016.46 1016.60 1016.77 1016.90 1017.20 1017.49 1017.62 1017.65 1017.71 1017.68 1017.82 1018.00 1017.90 1018.00 1018.15 1018.19 1018.24 1018.43
1005.85 1005.17 1004.90 1004.59 1004.76 1005.25 1005.50 1005.92 1006.65 1007.24 1007.28 1007.46 1008.30 1009.26 1009.63 1010.55 1011.31 1012.16 1012.42 1013.18 1013.64 1013.78 1014.01 1014.39 1014.84 1014.93 1015.07 1015.46 1015.72 1015.98 1016.07 1016.17 1016.32 1016.54 1016.72 1017.02 1017.44 1017.53 1017.47 1017.60 1017.71 1017.76 1017.83 1017.79 1018.00 1018.14 1018.19 1018.22 1018.32
1005.99 1005.38 1005.04 1004.64 1004.78 1005.14 1005.75 1006.52 1006.87 1007.30 1007.55 1008.00 1008.65 1009.34 1009.90 1010.33 1011.29 1011.99 1012.36 1012.54 1012.90 1013.43 1013.65 1013.88 1014.41 1014.58 1014.70 1015.13 1015.30 1015.48 1015.72 1015.72 1016.04 1016.28 1016.26 1016.66 1017.12 1017.22 1017.27 1017.33 1017.48 1017.55 1017.50 1017.67 1017.92 1017.98 1018.13 1018.07 1018.01
1005.80 1005.63 1005.11 1004.78 1004.68 1005.17 1005.94 1007.46 1007.15 1007.14 1007.81 1008.49 1008.98 1009.48 1010.23 1010.85 1011.23 1011.38 1011.52 1011.48 1011.88 1012.38 1013.08 1013.56 1013.84 1014.19 1014.53 1014.79 1014.93 1015.12 1015.25 1015.38 1015.54 1015.59 1015.84 1016.22 1016.69 1016.79 1017.01 1017.11 1017.17 1017.18 1017.30 1017.43 1017.56 1017.81 1017.92 1018.13 1018.08
1006.50 1006.33 1006.01 1004.56 1004.62 1004.81 1005.92 1006.83 1007.10 1007.34 1008.08 1008.81 1008.90 1009.44 1010.11 1010.37 1010.19 1010.32 1010.87 1011.57 1011.63 1012.05 1012.40 1012.82 1013.25 1013.76 1014.24 1014.48 1014.46 1014.71 1014.86 1014.98 1015.12 1015.26 1015.47 1015.62 1016.10 1016.33 1016.69 1016.89 1016.96 1017.04 1017.31 1017.40 1017.54 1017.71 1017.93 1018.13 1018.24
1007.84 1007.61 1006.88 1005.39 1004.79 1005.13 1006.03 1006.93 1007.01 1008.11 1008.98 1009.37 1009.20 1009.22 1009.69 1009.71 1009.07 1009.09 1009.34 1010.39 1011.17 1011.10 1011.78 1012.48 1012.88 1013.15 1013.61 1014.06 1014.08 1014.28 1014.41 1014.73 1014.84 1015.00 1015.26 1015.44 1015.65 1016.00 1016.42 1016.55 1016.61 1016.90 1017.31 1017.35 1017.56 1017.83 1017.99 1018.06 1018.09
1008.71 1008.11 1007.01 1006.54 1005.33 1005.35 1006.01 1006.76 1007.80 1008.73 1009.00 1009.27 1009.31 1009.42 1009.33 1008.95 1009.07 1008.92 1009.24 1009.62 1010.24 1010.78 1011.19 1011.89 1012.46 1012.78 1013.22 1013.77 1014.22 1014.54 1014.70 1014.71 1014.69 1014.78 1014.83 1015.10 1015.45 1015.73 1016.28 1016.54 1016.68 1016.91 1017.25 1017.40 1017.45 1017.79 1017.90 1017.98 1018.03
1008.53 1008.24 1007.63 1006.32 1005.55 1005.81 1006.61 1007.30 1008.40 1008.83 1009.36 1009.38 1009.33 1009.51 1009.31 1008.96 1009.48 1009.38 1009.41 1009.72 1010.40 1010.75 1011.13 1011.15 1011.79 1012.43 1013.00 1013.70 1014.25 1014.65 1014.85 1014.99 1014.97 1014.82 1014.70 1014.97 1015.31 1015.47 1015.95 1016.28 1016.62 1016.72 1016.92 1016.98 1017.28 1017.55 1017.73 1017.91 1017.99
1008.19 1008.13 1007.27 1006.14 1005.60 1006.05 1007.13 1007.82 1008.73 1009.05 1009.47 1009.65 1009.62 1009.70 1009.82 1009.93 1009.34 1009.19 1009.19 1009.60 1009.98 1010.41 1010.52 1011.09 1011.40 1011.94 1012.46 1013.02 1013.70 1014.13 1014.49 1014.69 1014.65 1014.61 1014.55 1014.70 1014.90 1015.22 1015.59 1015.88 1016.27 1016.62 1016.76 1016.85 1017.18 1017.35 1017.69 1017.73 1017.80
1007.45 1007.36 1006.65 1006.53 1006.21 1006.72 1007.45 1008.66 1009.80 1010.17 1010.06 1009.55 1009.12 1009.33 1009.78 1010.14 1010.23 1009.79 1008.95 1009.13 1009.39 1009.70 1009.86 1010.21 1010.62 1011.29 1011.98 1012.61 1013.44 1014.16 1014.57 1014.70 1014.68 1014.64 1014.62 1014.42 1014.58 1014.77 1015.15 1015.44 1015.90 1016.24 1016.42 1016.43 1016.73 1017.03 1017.34 1017.51 1017.66
1006.77 1006.00 1006.14 1006.34 1007.16 1007.53 1008.00 1009.80 1010.44 1010.88 1010.65 1010.20 1009.81 1009.25 1009.26 1009.46 1009.61 1009.00 1008.99 1009.02 1008.99 1009.03 1009.92 1010.49 1010.98 1011.69 1012.52 1012.45 1013.05 1013.46 1013.75 1014.38 1014.28 1014.24 1014.26 1014.27 1014.22 1014.46 1014.88 1015.12 1015.42 1015.86 1016.02 1016.11 1016.22 1016.44 1016.83 1017.09 1017.19
1005.60 1005.57 1006.40 1006.75 1007.59 1008.16 1009.04 1009.88 1010.17 1010.85 1010.84 1010.43 1009.90 1009.33 1008.90 1008.31 1008.17 1008.49 1008.77 1009.09 1009.25 1009.49 1009.76 1010.11 1010.91 1011.18 1012.26 1012.75 1012.58 1012.85 1013.46 1013.85 1014.13 1014.08 1014.15 1014.21 1014.24 1014.19 1014.62 1014.84 1015.09 1015.53 1015.73 1015.86 1016.04 1016.15 1016.37 1016.49 1016.63
1005.12 1005.93 1007.05 1008.10 1008.82 1009.95 1010.22 1010.32 1010.70 1010.73 1010.55 1009.99 1009.17 1009.19 1009.00 1007.88 1007.75 1008.49 1008.85 1009.30 1009.98 1010.31 1010.47 1010.59 1011.15 1011.02 1011.75 1012.80 1012.86 1012.69 1012.83 1013.52 1014.03 1014.21 1014.25 1014.22 1014.30 1014.33 1014.37 1014.63 1014.83 1015.06 1015.42 1015.56 1015.62 1015.77 1015.90 1015.96 1016.14
1005.68 1007.29 1008.70 1009.94 1010.75 1011.01 1010.86 1010.74 1010.33 1010.35 1010.30 1009.78 1009.12 1008.57 1008.73 1007.98 1008.19 1008.49 1008.93 1009.54 1010.14 1010.46 1010.74 1010.81 1011.88 1011.70 1012.23 1012.78 1012.34 1012.46 1012.81 1013.28 1013.49 1013.65 1013.88 1014.03 1014.24 1014.26 1014.15 1014.30 1014.54 1014.90 1014.86 1014.98 1015.18 1015.42 1015.44 1015.54 1015.76
1005.96 1007.34 1009.21 1010.56 1011.81 1011.52 1011.17 1011.23 1010.10 1010.17 1010.04 1009.37 1008.62 1008.45 1008.45 1008.35 1008.34 1008.47 1008.67 1009.16 1009.93 1010.55 1010.92 1011.43 1011.58 1011.25 1011.48 1011.95 1011.62 1011.87 1012.41 1012.95 1012.98 1013.04 1013.15 1013.30 1013.56 1013.65 1013.63 1013.92 1014.03 1014.19 1014.16 1014.49 1014.76 1015.01 1015.13 1015.18 1015.34
1006.06 1007.33 1008.25 1010.11 1011.72 1012.14 1012.12 1011.32 1009.82 1009.80 1009.80 1008.81 1008.09 1007.78 1008.57 1007.80 1008.22 1008.33 1008.38 1008.80 1009.86 1010.44 1010.72 1011.06 1010.90 1010.39 1010.90 1011.26 1010.86 1011.36 1012.02 1012.32 1012.57 1012.66 1012.69 1012.79 1012.91 1013.12 1013.36 1013.59 1013.69 1013.93 1014.07 1014.21 1014.47 1014.70 1014.81 1014.90 1015.02
1005.39 1007.01 1008.52 1009.98 1011.66 1012.41 1012.12 1011.65 1010.49 1009.60 1009.80 1009.01 1008.05 1007.62 1007.66 1007.77 1008.05 1008.23 1008.24 1008.72 1009.34 1010.28 1010.71 1010.66 1011.09 1011.31 1011.03 1010.99 1010.93 1011.43 1011.73 1011.78 1012.15 1012.37 1012.43 1012.38 1012.50 1012.70 1012.83 1013.05 1013.39 1013.55 1013.85 1013.95 1014.32 1014.53 1014.53 1014.61 1014.72
1006.26 1007.30 1008.69 1010.28 1011.45 1012.19 1012.27 1011.21 1008.98 1009.12 1009.57 1009.15 1008.60 1008.35 1008.17 1007.99 1008.09 1007.94 1008.15 1008.58 1008.93 1009.54 1010.48 1010.39 1010.90 1011.40 1011.50 1011.22 1011.54 1011.84 1012.15 1011.84 1011.77 1011.86 1011.79 1011.82 1012.03 1012.24 1012.46 1012.56 1012.84 1013.10 1013.36 1013.48 1013.94 1014.07 1014.32 1014.39 1014.49
1006.52 1007.36 1008.68 1010.48 1011.72 1011.97 1011.68 1010.08 1009.06 1009.10 1009.29 1009.79 1009.37 1009.01 1008.70 1008.67 1008.60 1008.26 1008.31 1008.46 1008.83 1009.19 1009.40 1009.48 1010.29 1011.06 1011.18 1011.53 1011.45 1011.75 1011.65 1011.19 1011.12 1011.23 1011.26 1011.40 1011.67 1011.84 1012.01 1012.08 1012.31 1012.52 1012.68 1012.98 1013.45 1013.68 1013.76 1014.02 1014.20
Wind_Speed
4 4 3 2 6 6 4 3 4 5 3 4 7 4 6 3 2 3 7 9 16 16 12 13 14 16 17 17 17 17 17 17 17 17 17 17 17 15 14 13 14 13 13 14 15 15 15 15 17
3 4 3 3 6 4 2 3 4 3 5 10 6 6 3 1 4 10 8 13 17 15 12 12 16 15 17 17 17 17 17 17 16 16 16 16 15 14 13 12 12 11 11 11 12 13 15 14 16
5 2 3 5 3 3 2 4 1 7 7 2 4 3 3 4 9 11 10 16 15 13 10 11 17 16 17 17 18 17 17 16 16 16 15 15 13 12 11 11 10 9 9 9 10 9 11 11 10
1 3 3 5 2 3 6 5 2 2 4 4 6 4 5 5 12 9 18 16 13 11 7 13 19 18 18 17 16 16 16 15 14 14 13 13 12 12 13 12 10 9 7 7 8 9 8 8 7
4 1 2 1 3 3 4 6 8 6 0 6 2 1 4 7 12 19 18 16 14 10 10 11 18 17 17 16 16 15 14 13 12 11 10 11 11 12 11 10 11 10 9 8 8 8 8 7 6
2 2 2 2 1 3 5 4 2 3 2 1 7 5 4 13 16 13 15 14 13 13 10 10 16 18 17 17 17 15 14 12 11 11 11 10 10 10 10 10 10 10 10 10 10 10 10 9 8
3 1 3 2 1 2 4 3 0 3 5 4 6 5 3 7 14 13 13 11 12 11 11 9 9 14 18 16 17 16 13 13 13 12 10 11 10 10 9 9 10 10 10 9 9 9 9 10 10
4 3 1 2 1 1 9 6 7 3 3 1 2 5 5 9 12 12 10 9 9 9 9 9 7 7 9 9 17 16 15 14 13 12 12 11 10 10 9 9 8 9 9 9 9 8 8 8 8
4 4 2 5 5 2 12 7 7 6 6 1 3 4 9 17 15 12 11 7 7 7 7 6 7 6 6 6 10 15 16 15 13 12 12 9 2 3 5 5 8 9 10 8 7 7 8 8 7
5 4 7 6 4 3 10 4 10 6 6 3 5 6 17 20 17 16 14 14 13 12 8 7 7 8 6 6 5 6 5 4 4 4 4 3 3 3 4 5 10 10 10 8 7 7 8 7 2
4 6 5 2 5 6 10 7 5 8 4 8 11 17 21 20 17 16 15 16 18 14 11 11 9 9 9 7 4 3 2 2 3 5 5 2 3 3 1 2 2 1 7 2 4 3 1 1 2
2 3 6 3 5 2 6 11 7 10 5 11 14 23 21 20 19 18 17 15 14 13 13 11 11 10 8 4 5 4 4 3 3 4 5 3 2 3 3 3 2 2 1 3 2 1 3 3 3
1 3 6 5 7 4 6 4 5 9 5 11 16 20 22 20 17 13 12 10 9 12 14 13 11 11 10 6 4 4 6 5 4 4 5 4 4 4 3 3 3 2 2 3 3 4 4 4 5
4 5 2 6 6 3 6 2 2 4 4 11 16 18 17 18 15 8 12 15 15 13 14 12 13 11 10 9 9 7 5 5 5 4 6 6 4 4 4 4 4 4 3 3 3 4 4 4 4
4 5 8 4 6 7 11 2 6 3 7 8 12 8 12 7 7 12 14 16 17 15 13 13 14 11 11 11 10 7 7 6 6 6 7 7 7 6 5 4 3 4 3 4 3 2 2 3 3
5 5 4 6 6 3 7 7 9 6 9 7 7 8 11 7 11 9 9 10 14 12 15 15 13 13 12 11 8 7 6 5 5 4 5 8 7 7 5 4 4 3 3 3 3 2 2 2 3
7 1 5 7 4 3 3 5 4 3 5 6 7 7 12 12 14 12 14 13 14 16 15 14 14 14 14 9 6 7 7 5 5 4 5 6 6 6 5 4 3 4 3 3 2 2 1 1 2
4 6 6 7 3 2 2 4 4 5 5 5 10 8 13 17 13 12 11 16 12 13 15 15 12 13 11 5 4 2 2 2 3 4 5 7 6 7 5 3 4 4 3 3 3 3 2 2 2
5 4 8 12 5 4 3 2 7 5 4 5 7 7 8 11 1 3 4 9 14 8 12 17 14 10 8 4 4 3 4 3 2 3 5 6 6 7 6 4 4 4 4 4 4 3 3 2 0
6 5 8 7 1 4 3 4 6 4 2 5 6 6 8 7 5 3 4 8 14 16 14 14 14 11 10 7 4 3 3 2 3 3 4 5 7 7 6 6 5 5 4 5 4 4 2 2 3
6 6 3 5 4 5 4 5 6 5 5 8 4 4 3 7 6 7 9 9 14 17 17 16 16 14 12 7 4 3 2 2 1 2 3 4 6 7 8 6 5 5 4 4 5 5 5 3 3
4 5 3 5 3 2 3 3 5 2 5 4 4 4 7 8 8 11 7 7 14 14 6 8 7 4 3 8 9 7 5 5 4 4 3 4 5 7 6 6 6 6 4 5 5 5 5 4 4
9 2 2 3 1 2 2 6 6 4 8 3 3 4 6 12 16 14 8 3 1 9 9 6 5 10 3 7 10 9 4 3 2 2 5 5 4 6 6 7 6 6 5 4 6 4 5 4 3
2 5 7 5 4 5 5 4 5 3 4 7 7 5 3 3 8 7 3 3 4 6 8 6 5 4 7 6 7 9 8 6 4 4 4 4 4 4 5 7 6 5 5 5 5 5 6 5 4
8 8 4 6 7 6 6 3 7 3 5 7 11 8 2 10 9 6 6 6 5 5 3 7 8 8 5 6 7 5 6 7 9 7 5 5 4 3 6 6 6 5 6 6 5 5 5 5 3
2 8 7 4 2 5 4 3 6 5 9 11 12 6 5 6 4 6 9 6 7 7 4 3 7 5 7 9 8 7 7 5 7 7 6 5 5 5 5 6 6 7 7 6 6 4 4 4 4
2 1 4 7 2 3 2 6 9 4 8 8 8 6 8 8 5 6 7 5 7 7 7 7 6 8 10 11 8 7 5 8 9 8 5 5 5 5 6 6 7 6 7 7 6 4 5 5 4
7 4 4 4 2 1 4 5 7 6 4 9 7 8 9 4 4 5 6 5 4 7 7 7 5 5 6 6 3 2 5 7 9 7 7 7 6 6 6 6 7 6 6 6 6 4 5 5 3
6 4 6 6 4 5 1 8 7 6 8 8 7 8 9 8 8 2 5 4 4 4 7 6 6 5 5 3 2 3 8 8 9 8 9 8 6 7 7 6 6 7 7 7 6 6 5 6 4
3 2 5 6 4 0 3 8 8 8 9 3 7 9 9 9 9 6 4 6 5 4 2 4 3 4 4 6 6 8 12 10 10 10 8 7 8 6 7 7 7 7 7 7 7 6 6 7 6
Wind_Direction
197 154 137 79 57 59 292 5 297 316 110 190 143 143 171 51 192 209 138 135 139 146 155 157 156 151 144 140 138 140 140 138 135 130 127 128 128 127 128 126 123 127 128 129 127 126 123 122 120
189 197 72 83 87 120 281 254 248 124 113 121 116 112 69 109 85 119 114 150 145 146 153 158 163 156 149 146 145 148 148 147 143 139 139 141 140 141 137 133 138 141 142 139 139 139 138 136 128
189 8 74 77 65 131 194 206 202 48 23 349 104 70 104 141 116 137 133 143 141 145 151 158 162 160 155 154 152 153 154 152 148 145 146 145 147 147 152 152 153 157 153 161 159 160 154 140 134
201 4 60 82 125 241 171 146 68 47 354 11 78 66 84 168 146 138 136 138 140 140 147 166 163 165 161 157 154 155 158 156 150 146 146 148 151 156 166 168 170 180 183 194 188 190 203 213 190
356 42 44 118 206 198 269 181 186 124 334 45 78 73 63 122 110 136 139 144 145 142 153 169 162 166 165 160 161 163 162 160 156 158 164 165 168 177 176 176 187 193 199 215 209 204 215 218 188
12 78 34 14 14 135 206 233 33 93 130 89 112 100 125 128 129 146 144 147 149 145 152 165 167 167 170 169 166 169 173 171 172 178 182 177 185 188 191 195 205 208 209 211 224 225 224 216 221
178 193 233 69 29 136 154 174 77 163 162 231 145 91 57 149 140 149 145 142 147 148 149 163 168 172 171 178 175 174 178 182 185 184 189 194 196 200 205 205 212 214 213 213 216 220 221 225 225
167 129 8 48 130 206 141 160 133 172 274 74 354 149 176 169 141 138 128 139 145 154 160 159 156 170 172 180 182 182 183 191 197 193 198 204 207 212 215 215 221 212 209 208 211 206 215 221 219
147 73 189 202 182 147 141 169 141 113 149 163 189 145 150 142 136 131 130 134 146 160 163 169 164 157 158 162 182 184 189 194 196 204 208 209 204 238 227 216 223 216 210 213 206 214 216 217 217
115 114 216 204 192 161 180 140 152 163 162 190 185 99 133 147 151 152 161 165 172 171 173 176 174 166 163 171 180 171 194 196 196 205 203 180 174 215 215 228 219 223 222 215 208 219 220 216 161
176 161 234 239 226 200 156 154 179 141 208 201 178 158 148 156 164 167 177 180 180 178 172 180 180 175 177 183 168 171 183 194 212 204 213 160 172 223 225 217 257 302 232 240 215 227 276 217 182
245 177 175 226 237 215 158 156 174 177 237 160 159 163 155 167 178 178 179 181 179 178 182 184 186 181 186 171 183 184 183 197 200 207 208 175 184 211 231 228 208 185 230 219 222 229 256 262 238
300 269 192 216 200 207 141 180 170 210 152 141 145 165 165 173 184 188 183 173 176 183 185 185 191 187 186 180 175 184 203 204 198 192 203 182 188 201 223 239 200 184 201 221 205 223 243 250 247
257 282 225 244 201 218 175 106 56 250 131 147 150 173 178 173 174 161 184 180 188 192 196 181 194 196 185 190 184 199 195 210 187 191 206 190 187 202 215 189 208 216 203 208 221 212 220 233 233
322 333 329 215 213 222 108 20 249 173 148 152 168 162 171 158 148 193 197 190 185 194 187 189 193 192 193 195 194 196 201 199 198 203 204 191 186 209 187 206 197 210 222 231 194 202 205 245 227
12 45 2 266 131 221 142 242 256 195 147 154 191 172 132 169 168 192 186 220 193 184 190 190 194 189 198 197 197 195 205 195 202 189 186 203 188 189 188 198 207 199 203 210 196 185 218 195 196
11 230 279 313 148 126 124 245 231 109 110 200 217 208 163 186 201 194 178 195 204 190 185 190 193 189 195 202 197 194 195 186 203 178 187 187 182 173 185 192 219 209 194 223 175 229 199 242 234
296 332 302 273 225 56 122 233 102 152 152 212 234 203 195 203 194 195 179 196 190 191 187 182 191 187 184 176 152 134 147 192 198 209 191 171 177 184 177 187 217 194 196 212 200 210 216 221 248
269 258 284 286 243 102 228 47 125 150 160 209 229 215 218 205 73 163 150 211 206 201 188 188 179 176 160 162 160 160 187 177 208 219 205 177 171 193 179 199 182 207 192 208 196 153 209 234 127
242 265 274 277 71 120 167 230 82 75 6 345 246 224 231 274 350 342 304 221 190 196 196 192 191 171 174 175 172 150 170 182 175 201 226 207 183 190 196 195 197 197 206 189 186 176 170 236 185
269 212 226 238 9 27 124 26 64 10 18 328 313 227 211 227 248 259 222 224 200 189 196 191 189 176 177 163 130 88 91 53 158 202 217 226 195 192 193 194 195 203 198 192 178 188 192 197 224
248 198 203 283 60 270 112 263 112 151 226 263 245 234 218 204 204 239 256 249 214 201 148 130 121 103 217 165 173 170 179 172 211 191 203 220 202 197 181 204 184 195 202 190 192 181 199 174 179
230 102 59 348 137 35 44 88 260 118 231 227 230 203 216 225 210 208 225 211 264 125 133 116 106 117 190 213 196 186 166 185 213 187 194 218 217 211 172 202 190 193 211 208 195 187 202 182 172
62 63 42 56 52 22 309 123 276 281 274 298 281 271 243 213 124 149 163 136 116 104 117 104 105 273 52 234 212 195 178 189 176 214 211 210 211 219 203 196 191 201 217 204 212 215 207 202 206
72 58 352 356 9 229 327 34 243 273 297 248 271 258 222 131 144 153 183 170 128 137 128 134 202 155 162 242 203 191 209 192 211 202 199 190 207 211 211 197 190 189 208 220 211 214 222 211 195
126 137 149 226 233 270 334 330 262 228 282 271 265 266 175 140 132 191 203 182 147 125 137 209 183 148 167 228 193 173 181 214 227 207 201 200 202 209 199 196 197 197 198 213 207 202 221 217 221
135 54 182 105 358 53 261 284 295 231 285 280 282 267 159 100 118 239 231 197 147 144 190 209 224 190 203 222 223 169 174 200 228 224 203 201 204 218 207 200 198 210 208 206 198 206 224 214 219
112 150 53 14 124 258 302 274 243 258 230 276 276 354 357 23 74 216 236 196 159 143 187 208 242 233 225 269 347 171 210 220 229 219 207 207 211 220 215 203 207 203 212 214 201 214 233 221 230
6 16 65 111 107 155 228 266 228 206 195 234 262 344 329 339 341 273 200 214 172 156 166 205 227 208 228 210 220 254 258 234 222 213 211 208 200 209 213 215 207 207 208 210 207 216 227 231 214
159 81 108 113 275 8 154 270 325 165 194 329 329 310 298 328 330 312 172 188 188 209 254 225 183 234 200 222 215 228 253 235 220 215 210 199 206 207 215 217 209 213 204 202 205 215 213 213 219